Regional Weather Roundup
Issued by NWS Pendleton, OR

Home | Current Version | Previous Version | Text Only | Print | Product List | Glossary On
Versions: 1 2 3 4 5 6 7 8 9 10 11 12 13 14 15 16 17 18 19 20 21 22 23 24 25 26 27 28 29 30 31 32 33 34 35 36 37 38 39 40 41 42 43 44 45 46 47 48 49 50
000
ASUS46 KPDT 190725
RWRPDT
PENDLETON REGIONAL WEATHER ROUNDUP
NATIONAL WEATHER SERVICE PENDLETON OREGON
1200 AM PDT SAT APR 19 2014

NOTE: FAIR INDICATES FEW OR NO CLOUDS BELOW 12,000 FEET WITH NO
SIGNIFICANT WEATHER AND/OR OBSTRUCTIONS TO VISIBILITY.

# INDICATES UNOFFICIAL STATION AND DATA

WAZ520-190810-
EAST SLOPES OF WASHINGTON CASCADES

CITY            SKY/WX      TMP DP  RH  WIND    PRES   REMARKS
#BUMPING DAM    N/A         30  N/A N/A NE1     N/A
#CLE ELUM HS    N/A         32  28  85  CALM    29.91F
#CLE ELUM 2NW   N/A         30  28  92  CALM    N/A
#CLE ELUM LAKE  N/A         36  28  72  CALM    29.95F
#CLIFFDEL 2NW   N/A         32  28  85  CALM    N/A
#GLENWOOD       N/A         35  31  85  CALM    29.94F
#MANASTASH CYN  N/A         31  24  75  CALM    29.91F
#NELSON         N/A         32  30  92  CALM    29.98F
#NELSON 3SW     N/A         31  29  92  CALM    30.17F
#NILE           N/A         33  29  85  CALM    29.30F
#RONALD 2NW     N/A         35  29  78  N2      29.81F
#TEANAWAY 4NE   N/A         32  28  85  W1      N/A
#TROUT LAKE HS  N/A         35  33  92  W1      N/A
#TROUT LAKE 1NE N/A         35  32  89  N1      29.96S
$$

WAZ521-190810-
SIMCOE HIGHLANDS

CITY            SKY/WX      TMP DP  RH  WIND    PRES   REMARKS
#BICKLETON HS   N/A         32  20  61  CALM    29.94F
#CENTERVILLE 4W N/A         41  32  70  N3      29.68F
#CENTERVILLE 1SWN/A         33  29  85  CALM    29.93S
#GOLDENDALE 1NE N/A         39  27  62  NW3     N/A
#GOLDENDALE 1S  N/A         35  30  82  CALM    28.09F
#GOLDENDALE 5WNWN/A         37  30  75  CALM    29.93F
#GOODNOE HILLS  N/A         46  32  58  E3      29.86F
#LYLE 6NE       N/A         43  35  73  N3      29.91F
$$

WAZ026-190810-
KITTITAS VALLEY

CITY            SKY/WX      TMP DP  RH  WIND    PRES   REMARKS
ELLENSBURG AP   CLEAR       35  26  69  N3      29.94F
#ELLENSBURG CWU N/A         36  28  72  CALM    29.92F
#ELLENSBURG 3NE N/A         34  27  75  CALM    29.96S
#ELLENSBURG     N/A         35  31  85  NE1     N/A
#ELLENSBURG 1E  N/A         33  25  72  CALM    N/A
#KITTITAS 4N    N/A         33  24  69  CALM    30.12F
#KITTITAS 3S    N/A         29  24  81  CALM    29.96S
#THORP 6N       N/A         33  28  82  N5      29.99F
$$

WAZ027-190810-
YAKIMA VALLEY

CITY            SKY/WX      TMP DP  RH  WIND    PRES   REMARKS
YAKIMA AIRPORT  CLEAR       41  28  59  W9      29.96S
YAKIMA-VAGABOND CLEAR       38  26  62  E6      29.96F
#COWICHE 1N     N/A         41  29  62  NW1     30.09F
#DONALD 2NE     N/A         44  25  47  CALM    30.26F
#GRANDVIEW      N/A         43  28  55  CALM    29.96S
#MABTON         N/A         41  33  73  CALM    29.94S
#MOXEE 2E       N/A         38  25  59  CALM    29.93R
#NACHES 2SW     N/A         38  32  79  CALM    29.94F
#OUTLOOK DOT    N/A         43  30  60  CALM    N/A
#SELAH 8E       N/A         32  23  69  SE6     N/A
#TERRACE HTS    N/A         39  28  64  CALM    29.93S
#TOPPENISH      N/A         44  31  60  CALM    29.87S
#WAPATO 4NE     N/A         44  25  47  CALM    30.26F
#WEST VALLEY    N/A         39  29  67  CALM    29.98S
#W YAKIMA       N/A         43  31  62  CALM    29.95F
#WHITE SWAN 5E  N/A         38  29  70  NW1     29.96S
#WILEY CITY 3W  N/A         37  27  67  CALM    29.96F
$$

WAZ028-190810-
LOWER COLUMBIA BASIN...WASHINGTON

CITY            SKY/WX      TMP DP  RH  WIND    PRES   REMARKS
PASCO           CLEAR       36  34  92  N7      29.96F
PROSSER AWOS    N/A         41  30  65  N2      29.98S
#BASIN CITY 5SW N/A         46  32  58  N1      29.96S
#BENTON CITY    N/A         42  31  65  CALM    29.86F
#CONNELL 5N     N/A         36  28  72  CALM    29.96F
#CONNELL 5NW    N/A         36  30  79  CALM    29.92F
#ELTOPIA        N/A         41  32  70  CALM    29.92F
#ELTOPIA 6NW    N/A         43  31  62  NE1     28.92F
#KENNEWICK 3S   N/A         44  30  58  CALM    29.96F
#PASCO-BROADMOORN/A         43  31  62  CALM    29.88F
#PATERSON       N/A         46  34  63  NE3     29.93F
#PROSSER        N/A         49  27  42  E2      29.94F
#SAGEMOOR 2W    N/A         44  32  62  CALM    29.80F
#TOUCHET 2S     N/A         34  31  89  CALM    29.95F
#WEST PASCO     N/A         43  30  60  CALM    29.94F
$$

WAZ029-190810-
FOOTHILLS OF THE BLUES...WASHINGTON

CITY            SKY/WX      TMP DP  RH  WIND    PRES   REMARKS
WALLA WALLA AP  CLEAR       44  32  62  E9      29.95F
#COLLEGE PLACE  N/A         44  31  60  CALM    29.97F
#LOWDEN 2SE     N/A         38  34  85  E1      29.93F
#PLEASANT VIEW 1N/A         42  26  53  CALM    30.02F
#PRESCOTT       N/A         37  33  85  CALM    29.96F
#SUDBURY        N/A         36  N/A N/A CALM    N/A
#WHITMAN COLLEGEN/A         46  33  60  E2      30.00F
#WAITSBURG 8N   N/A         35  21  56  CALM    29.82R
#WALLA WALLA 5E N/A         40  32  73  S14     N/A    WCI 32
#WHITMAN MISSIONN/A         39  35  85  CALM    29.97F
$$

WAZ030-190810-
BLUE MOUNTAINS...WASHINGTON

CITY            SKY/WX      TMP DP  RH  WIND    PRES   REMARKS
$$

ORZ009-041-WAZ024-190810-
COLUMBIA RIVER GORGE

CITY            SKY/WX      TMP DP  RH  WIND    PRES   REMARKS
HOOD RIVER AP   CLEAR       41  37  86  S3      29.94F
THE DALLES AP   CLEAR       43  36  76  E5      29.94S
#ARLINGTON AIRPON/A         44  33  65  NE5     N/A
#ARLINGTON HS   N/A         41  33  73  W2      29.87F
#CELILO DOT     N/A         46  32  58  SW1     N/A
#MARYHILL 2W    N/A         46  36  68  CALM    N/A
#MOSIER 1S      N/A         42  31  65  CALM    29.97F
#MURDOCK        N/A         48  39  71  NW3     29.96S
#RUFUS DOT      N/A         45  33  63  S7      N/A

$$

ORZ510-190810-
NORTH CENTRAL OREGON

CITY            SKY/WX      TMP DP  RH  WIND    PRES   REMARKS
#CHENOWITH 1W   N/A         45  32  60  E5      N/A
#COW CYN RST AREN/A         44  27  51  N2      N/A
#GRASS VALLEY   N/A         34  32  92  CALM    N/A
#GRASS VALLEY 1SN/A         38  31  76  CALM    29.95F
#KENT DOT       N/A         42  24  48  E7      N/A
#MAUPIN SCHOOL  N/A         45  34  65  CALM    29.97F
#SHANIKO 5WSW   N/A         42  22  45  E10     N/A
#SHANIKO 4NW    N/A         41  26  55  E10     29.90F
#TYGH VALLEY 2NEN/A         41  34  76  CALM    29.93F
#WAPANITIA AIRPON/A         40  34  79  W3      29.95F
#WASCO DOT      N/A         33  31  92  SE1     N/A
#WASCO 5NE      N/A         36  32  85  CALM    29.95F
$$

ORZ511-190810-
CENTRAL OREGON

CITY            SKY/WX      TMP DP  RH  WIND    PRES   REMARKS
BEND AIRPORT    MOCLDY      39  23  52  SW3     29.93F
MADRAS AIRPORT  PTCLDY      39  30  70  CALM    29.93F
REDMOND AIRPORT PTCLDY      37  22  54  SE5     29.91F
#BEND 6E        N/A         40  20  44  CALM    29.87F
#BEND 1SW       N/A         35  18  49  CALM    N/A
#BEND-AWBREY    N/A         42  22  45  CALM    29.93
#BEND-KIM LN    N/A         42  25  51  SW3     29.88F
#CROOKED RVR RANN/A         43  27  53  SE8     29.92F
#CULVER         N/A         40  26  57  CALM    29.89F
#LAKE BILLY CHINN/A         42  16  34  SW2     30.01F
#POWELL BUTTE   N/A         42  23  46  E1      29.56F
#PRINEVILLE AIR N/A         40  28  62  CALM    29.89F
#PRINEVILLE 3N  N/A         37  28  70  CALM    29.88F
#WARM SPRINGS   N/A         46  34  63  S1      29.91S


ORZ509-190810-
EAST SLOPES OF OREGON CASCADES

CITY            SKY/WX      TMP DP  RH  WIND    PRES   REMARKS
#BLUE BOX PASS  N/A         37  -11 12  CALM    N/A
#CAMP SHERMAN   N/A         32  24  72  CALM    29.95F
#LA PINE DOT    N/A         35  21  56  CALM    N/A
#LA PINE 4NW    N/A         31  21  66  CALM    29.96F
#LAVA BUTTE DOT N/A         32  19  58  S14     N/A    WCI 22
#SISTERS AIRPOR N/A         33  27  78  CALM    29.94F
#SISTERS ODOT   N/A         32  N/A N/A CALM    N/A
#SISTERS 3N     N/A         33  19  56  CALM    29.98S
#SUNRIVER       N/A         35  24  64  CALM    29.81F
#SUNRIVER AP    N/A         34  27  75  CALM    29.89F
#SUTTLE LK DOT  N/A         30  27  88  E9      N/A
#TUMALO 3W      N/A         44  19  36  SW5     29.81F
#WANOGA BUTTE D N/A         39  15  37  W1      N/A

$$

ORZ044-190810-
LOWER COLUMBIA BASIN...OREGON

CITY            SKY/WX      TMP DP  RH  WIND    PRES   REMARKS
HERMISTON       CLEAR       38  33  82  E7      29.94F
#BOARDMAN SCHOOLN/A         42  34  73  CALM    29.94F
#BOARDMAN 3W    N/A         38  31  76  SE2     29.68S
#BOARDMAN 8SW   N/A         43  36  76  W5      29.93F
#IONE SCHOOL    N/A         42  32  67  E2      29.92F
#IRRIGON 4NW    N/A         46  37  71  NE3     N/A
#UMATILLA SCHOOLN/A         39  36  89  E1      30.03S
#UMATILLA       N/A         43  33  67  SE5     29.92F
$$

ORZ507-190810-
NORTHERN FOOTHILLS OF THE BLUES

CITY            SKY/WX      TMP DP  RH  WIND    PRES   REMARKS
PENDLETON AIRPT CLEAR       38  31  76  E9      29.93F
#ADAMS 3WNW     N/A         35  31  85  NE1     29.95F
#ATHENA         N/A         32  29  89  CALM    29.98F
#HELIX SCHOOL   N/A         35  30  82  N2      29.95F
#HELIX 3N       N/A         43  27  53  CALM    29.91F
#M-F FERNDALE   N/A         43  33  67  CALM    29.94F
#M-F GROVE ELEM N/A         46  29  51  CALM    29.93F
#M-FREEWATER 5SEN/A         45  32  60  CALM    29.95F
#PDT AQUATIC CTRN/A         41  27  57  CALM    29.96S
#PENDLETON DNTN N/A         41  25  53  CALM    29.92S
#PDT SUNRIDGE   N/A         37  32  82  CALM    29.96F
#PILOT ROCK     N/A         36  28  72  CALM    29.96F
#TUTUILLA       N/A         33  29  85  CALM    29.88F
#UMAPINE 2E     N/A         40  34  79  SE1     29.88F
#WESTON SCHOOL  N/A         42  28  57  CALM    29.98F

$$

ORZ508-190810-
SOUTHERN FOOTHILLS OF THE BLUES

CITY            SKY/WX      TMP DP  RH  WIND    PRES   REMARKS
LEXINGTON       CLEAR       41  32  70  E7      29.94F
#AJAX           N/A         43  28  55  SW6     29.93F
#CONDON SCHOOL  N/A         42  31  65  NE2     29.88F
#CONDON 5W      N/A         42  27  55  E5      29.89F
#FOSSIL SCHOOL  N/A         36  29  75  CALM    29.90F
#HEPPNER 4NE    N/A         40  30  67  E3      29.95F
#LEXINGTON 2SE  N/A         41  32  70  CALM    29.90F
#MIKKALO        N/A         41  30  65  SE5     29.92F
#OLEX 4N        N/A         41  34  76  S3      29.93F
#RUGGS 5NE      N/A         36  29  75  E3      30.14F
#RUGGS 2SW      N/A         40  29  64  S8      29.99F

$$

ORZ502-503-190810-
BLUE MOUNTAINS

CITY            SKY/WX      TMP DP  RH  WIND    PRES   REMARKS
MEACHAM         CLEAR       29  26  88  CALM    29.95F
#BATTLE MTN DOT N/A         36  26  67  S8      N/A
#HARDMAN 10S    N/A         38  26  62  SW2     29.99F
#HEPPNER 15SE   N/A         38  22  52  CALM    29.83F
#LADD CYN SMT   N/A         31  24  75  CALM    N/A
#LADD CREEK ODOTN/A         33  13  43  SW1     N/A
#LONG CREEK HS  N/A         36  31  82  E2      29.89F
#N POWDER DOT   N/A         31  29  92  W1      N/A
#TOLLGATE       N/A         32  25  75  CALM    29.91F
#TROY SCHOOL    N/A         36  30  79  CALM    29.87S
#UKIAH          N/A         29  27  92  CALM    30.02F
#WESTON 4E      N/A         41  28  59  E6      29.92F
$$

ORZ505-190810-
JOHN DAY BASIN

CITY            SKY/WX      TMP DP  RH  WIND    PRES   REMARKS
JOHN DAY        PTCLDY      39  27  62  E8      29.95F
#JOHN DAY KJDY  N/A         60  27  28  W1      30.04S
#DAYVILLE SCHOOLN/A         42  30  62  CALM    29.93S
#MONUMENT HS    N/A         41  29  62  CALM    29.91S
#MT. VERNON 5SE N/A         41  23  48  SE1     29.90F
$$

ORZ506-190810-
OCHOCO AND JOHN DAY HIGHLANDS

CITY            SKY/WX      TMP DP  RH  WIND    PRES   REMARKS
#ANTONE         N/A         32  N/A N/A CALM    N/A
#BUCK CREEK DOT N/A         45  29  53  E7      N/A
#HORSE RIDGE DO N/A         31  19  61  CALM    N/A
#KEYES SMT DOT  N/A         37  23  56  NE3     N/A
#PAULINA SCHOOL N/A         41  29  62  CALM    29.92F
#PINE MTN OBS   N/A         41  17  37  S7      N/A
#PRAIRIE CITY   N/A         30  24  78  CALM    30.13R
#SENECA 9NW     N/A         28  22  78  CALM    29.97R
$$

ORZ049-190810-
GRANDE RONDE VALLEY

CITY            SKY/WX      TMP DP  RH  WIND    PRES   REMARKS
LA GRANDE       PTCLDY      37  25  61  SE5     29.96F
#COVE           N/A         37  29  72  CALM    29.90S
#COVE SCHOOL    N/A         36  28  72  CALM    29.96S
#COVE 6NW       N/A         34  28  78  CALM    30.03S
#ELGIN 3N       N/A         33  25  72  CALM    29.71F
#ELGIN 1E       N/A         36  29  75  CALM    N/A
#IMBLER SCHOOL  N/A         36  28  72  CALM    29.94F
#ISLAND CITY 4N N/A         34  30  85  CALM    29.93F
#LADD CYN DOT   N/A         39  23  52  SE6     N/A
#LA GRANDE ELEM N/A         37  29  72  CALM    29.96F
#UNION 1S       N/A         41  27  57  N3      29.90S
$$

ORZ050-190810-
WALLOWA COUNTY

CITY            SKY/WX      TMP DP  RH  WIND    PRES   REMARKS
JOSEPH AIRPORT  PTCLDY      32  23  69  S3      29.97F
#ENTERPRISE HS  N/A         32  25  75  CALM    29.99F
#IMNAHA SCHOOL  N/A         38  28  67  CALM    29.94S
#JOSEPH 3N      N/A         29  23  78  CALM    29.99F
#LOSTINE        N/A         32  25  75  CALM    29.79F
#MT HOWARD 8000 N/A         30   7  37  SW6     29.95F
#PROMISE 1S     N/A         32  26  78  CALM    30.12F
#SHEEP RDG 7000 N/A         34  10  36  CALM    30.09F
#WALLOWA SCHOOL N/A         31  26  81  CALM    30.94S



$$



USA.gov is the U.S. government's official web portal to all federal, state and local government web resources and services.